Wind_Speed
69 67 65 65 65 65 66 69 73 78 78 71 64 61 60 61 61 58 56 57 57 56 54 53 50 47 47 47 48 51 55 61 68 74 79 84 90 93 94 91 89 89 90 90 89 88 87 84 82 80 77 77 77 79 82 83 81 78 76 75 74 74 74 74 73 70 68 66 64 66 67 64 60 57 56 56 54 54 54 53 54 54 52 51 49 45 44
72 71 71 71 71 71 72 75 78 79 77 71 64 60 60 62 62 59 56 57 58 57 57 56 54 52 49 47 46 49 52 58 65 71 77 82 87 92 94 93 91 92 92 91 90 89 87 85 83 81 78 77 78 80 82 84 83 79 76 76 76 77 75 74 76 74 70 69 66 65 66 64 61 58 57 58 57 57 56 55 57 57 54 53 51 49 47
76 76 77 77 78 79 80 81 79 76 73 70 64 61 60 62 64 61 57 57 57 58 60 61 59 56 50 46 45 46 49 55 62 68 75 81 86 91 94 93 93 94 93 91 90 89 88 86 84 82 79 77 79 80 82 83 82 78 77 77 79 79 76 76 78 76 71 68 65 63 65 65 63 61 60 60 61 60 58 58 60 59 57 56 55 53 52
83 84 84 85 86 86 84 81 77 72 70 68 65 62 61 62 65 63 59 57 58 60 64 65 61 56 50 47 46 45 47 52 59 66 73 80 85 90 93 94 95 96 94 92 91 90 88 86 84 84 83 81 80 81 80 80 80 78 78 79 80 79 78 79 79 77 73 69 66 66 68 69 69 66 63 63 64 64 63 63 62 61 61 61 58 56 55
91 91 91 91 89 87 82 78 74 70 68 68 66 64 63 64 65 65 62 61 61 63 67 66 63 58 52 49 48 46 46 51 57 64 72 79 86 91 95 96 97 96 95 93 92 90 88 86 86 87 85 83 82 81 78 77 77 78 79 80 81 79 79 79 78 77 76 73 71 71 72 72 71 68 67 67 68 68 67 64 62 63 65 63 60 59 57
95 94 92 90 87 84 81 78 75 71 69 70 69 67 67 68 69 68 68 66 64 65 68 68 66 62 55 51 50 47 47 51 55 62 71 80 87 92 95 97 98 97 96 96 93 91 89 87 89 89 85 83 82 79 77 76 76 77 78 80 81 79 77 77 77 77 78 75 73 73 74 72 71 70 70 71 71 70 68 64 63 65 67 65 64 63 59
95 92 90 88 86 84 82 80 78 76 74 75 74 72 72 73 73 72 71 70 67 66 70 70 68 65 60 55 52 49 47 50 53 61 71 80 86 91 94 98 100 99 99 99 96 93 91 90 91 89 84 82 81 78 78 78 77 76 77 78 79 78 76 76 77 78 78 76 74 74 75 73 72 72 74 74 74 72 70 67 66 68 69 67 67 66 60
94 92 91 90 88 86 85 84 83 81 79 78 78 77 77 77 76 75 74 73 70 68 70 71 69 67 63 56 52 49 47 49 53 60 70 79 87 92 95 98 100 101 100 99 96 94 93 92 90 87 84 82 80 79 79 80 79 78 78 78 78 76 75 74 76 78 78 76 74 74 74 73 72 73 74 75 74 73 72 70 69 71 71 69 70 68 62
96 94 93 92 90 89 87 86 85 84 81 80 80 80 80 79 78 78 76 75 73 71 71 72 71 69 63 56 53 51 49 50 53 58 67 78 87 93 97 98 99 99 99 98 97 95 93 92 89 87 87 85 83 81 81 81 79 78 79 80 79 77 76 76 77 77 76 75 73 72 70 71 72 73 72 72 74 74 74 74 74 74 71 70 71 68 64
96 94 93 92 90 89 87 86 85 84 82 81 80 80 81 81 80 79 77 76 76 74 73 73 72 70 64 58 55 54 53 53 54 55 63 75 85 90 95 98 98 97 97 98 98 96 94 91 89 89 89 88 85 84 84 82 79 78 79 79 78 77 78 78 78 77 76 74 73 70 69 70 73 72 70 71 75 76 75 75 76 75 70 68 70 68 65
93 91 90 88 87 86 85 84 83 83 82 81 80 80 82 82 81 80 79 78 78 77 75 75 74 72 66 60 57 57 55 53 53 53 60 72 81 86 91 97 99 98 97 97 98 97 94 91 89 89 89 88 86 86 86 84 80 79 79 79 77 77 78 79 78 77 76 75 73 71 70 71 72 71 69 71 74 74 73 74 75 72 68 67 68 66 66
86 85 84 83 82 81 80 79 79 79 80 79 79 80 81 82 81 80 79 80 80 78 77 76 76 73 68 61 58 57 55 51 49 51 57 68 79 84 89 94 97 98 99 97 95 94 93 92 90 89 89 88 87 87 87 84 81 81 81 80 78 77 77 78 77 77 76 75 73 73 72 71 71 71 70 71 71 70 71 74 74 70 67 66 66 65 67
79 78 77 76 76 75 75 74 74 75 75 76 76 77 79 80 80 80 80 80 81 79 78 78 76 73 68 61 58 57 54 49 48 51 56 66 76 83 88 91 94 95 96 94 93 93 92 91 89 88 89 89 87 86 87 86 83 83 83 82 80 78 78 79 79 79 77 75 74 74 73 71 71 72 72 72 71 69 70 73 74 71 68 67 66 66 68
72 71 70 70 69 69 69 68 68 69 70 71 72 73 75 77 78 79 79 80 81 80 79 78 75 73 69 62 58 58 54 49 49 52 57 66 75 81 85 89 91 92 92 91 91 92 91 89 85 85 86 87 86 87 88 87 85 85 86 84 82 82 83 83 82 81 79 77 76 76 74 72 72 73 72 72 70 69 70 72 74 73 71 70 69 68 69
67 65 65 64 64 64 64 63 64 64 65 67 67 68 71 73 75 76 77 78 80 80 79 77 74 72 69 63 59 58 55 51 51 55 60 67 74 79 83 87 90 91 90 87 86 87 88 88 84 82 84 85 86 87 87 87 86 87 88 87 86 86 86 84 83 82 80 77 77 76 75 74 74 75 74 73 72 72 73 75 76 76 75 73 72 71 71
62 60 60 59 59 59 59 59 59 60 61 62 63 64 66 68 70 72 74 76 78 78 77 75 73 72 69 63 60 60 57 54 54 57 63 68 73 78 83 87 90 90 88 86 84 82 83 84 84 83 83 84 85 86 87 87 87 87 88 88 88 88 87 85 83 82 80 79 78 77 77 77 77 78 79 78 78 77 77 78 80 80 78 76 75 73 73
57 56 56 55 55 56 56 55 56 56 58 59 59 59 62 64 66 68 70 72 75 75 74 73 73 72 69 63 61 61 59 56 57 61 65 69 73 78 83 87 89 88 86 86 85 82 81 82 83 83 83 84 85 86 88 88 86 86 88 89 88 89 87 86 84 83 81 81 82 81 80 80 80 80 81 81 81 80 78 80 82 81 79 79 79 77 74
54 53 53 52 52 53 53 52 53 53 54 55 55 56 58 60 62 64 65 68 71 73 71 71 72 71 68 64 63 63 61 59 59 63 67 69 71 75 80 84 87 86 84 85 85 83 82 83 83 84 85 86 86 85 87 87 85 86 89 90 89 89 88 87 86 85 84 84 85 84 83 82 81 80 81 81 81 81 81 82 83 81 80 81 81 80 78
51 50 50 49 50 50 50 49 50 50 51 52 52 53 55 57 58 60 62 65 68 69 69 70 72 71 68 65 65 65 63 62 62 66 69 70 71 73 77 80 83 83 83 83 83 83 83 82 83 85 85 86 87 85 85 85 85 86 89 90 88 87 87 86 86 86 86 85 85 84 83 82 80 79 80 80 81 82 84 84 83 82 82 82 81 81 80
48 47 47 47 47 47 47 47 47 48 49 50 50 51 53 54 55 57 59 62 66 67 67 69 71 71 69 67 67 67 65 64 65 68 71 71 71 73 75 76 78 79 80 80 80 82 82 82 82 83 84 85 86 85 83 83 83 85 88 90 88 86 85 85 85 84 83 83 83 82 82 81 80 79 80 81 82 84 85 85 84 82 81 81 80 80 81
44 44 44 44 44 44 44 44 44 45 47 48 48 49 51 52 54 55 58 61 64 66 65 67 70 70 69 68 68 68 67 67 68 71 73 73 72 73 75 76 75 76 78 80 80 80 81 82 82 82 82 83 83 83 82 82 82 83 86 88 87 84 83 83 82 81 81 80 80 80 81 80 80 80 82 82 83 85 85 85 85 84 83 83 82 81 82
41 41 41 40 41 41 41 42 42 43 45 46 46 47 49 51 52 54 57 60 63 63 63 65 69 69 67 67 68 69 68 68 69 73 76 76 74 74 75 77 76 76 78 81 81 80 79 81 82 83 83 82 80 80 81 81 81 81 82 83 84 82 80 79 78 78 78 78 78 78 79 78 76 77 80 81 81 82 83 83 84 84 84 83 83 82 82
38 38 38 38 38 39 39 39 40 41 43 44 44 45 48 50 51 54 56 59 61 61 61 64 67 66 65 66 68 68 69 70 72 75 78 79 76 74 76 77 78 78 78 78 78 79 80 81 81 82 83 82 81 80 79 79 79 78 76 77 79 78 76 76 76 75 76 76 75 74 72 70 67 68 74 78 78 78 79 80 82 83 83 84 83 81 80
35 35 35 35 36 37 37 37 38 40 41 42 42 44 47 49 51 53 55 57 58 58 59 63 65 63 63 65 67 68 69 71 75 78 80 80 78 75 76 79 79 79 78 76 75 76 78 78 78 78 79 80 80 80 79 79 79 77 74 74 74 73 72 74 75 75 74 75 74 71 67 64 60 62 69 76 78 77 76 77 79 80 81 82 78 73 72
33 32 33 33 34 34 34 35 37 38 39 41 42 44 47 49 50 51 53 55 56 56 58 61 61 60 62 66 68 71 72 74 78 81 82 83 81 76 75 78 79 78 78 77 74 74 74 73 73 74 75 76 77 76 76 77 77 76 75 75 73 71 71 73 75 74 74 75 74 71 68 65 62 62 65 71 75 77 76 75 77 78 78 77 74 69 67
30 30 31 31 32 32 33 34 36 37 38 40 41 43 46 48 48 49 50 53 54 54 55 58 59 60 64 69 72 75 76 78 82 85 84 85 85 81 76 75 76 75 75 75 75 75 73 72 72 71 71 72 73 73 74 75 75 75 75 74 72 71 72 73 73 73 72 73 72 69 66 65 65 66 69 71 74 78 78 77 78 79 78 77 76 73 69
28 28 29 30 30 31 31 33 34 35 37 39 41 43 45 45 45 47 50 51 52 53 55 58 60 62 67 71 74 76 78 80 83 87 87 86 87 85 79 75 75 75 74 74 74 74 73 73 73 72 70 71 71 72 73 74 73 72 72 71 69 69 70 71 70 69 69 70 69 67 64 64 64 66 70 73 76 80 80 79 79 79 78 78 78 76 73
26 27 27 28 29 29 30 32 33 35 36 38 40 42 43 43 44 47 49 50 51 53 56 59 61 64 68 72 74 76 79 82 84 87 88 87 86 86 82 77 76 76 75 74 73 72 71 71 71 70 71 71 70 70 71 71 70 70 69 66 66 67 67 66 64 62 61 61 62 62 62 64 65 66 69 73 77 80 80 80 80 78 77 77 76 75 72
24 25 25 27 27 28 30 31 32 34 36 38 40 41 41 42 44 47 49 50 51 53 55 59 61 65 69 72 75 78 81 83 85 87 88 87 85 85 83 80 78 79 78 77 74 71 71 70 67 66 68 69 68 68 69 67 67 66 65 64 64 65 63 62 61 58 55 55 58 61 63 66 68 70 74 77 80 81 80 80 79 77 74 73 73 72 70
22 23 24 26 27 28 29 30 32 34 36 38 39 40 41 43 45 47 48 49 50 52 55 58 62 66 69 72 75 78 82 83 84 86 87 86 85 85 84 82 80 80 80 79 76 73 71 68 65 63 65 67 67 67 67 65 64 64 63 63 64 64 63 64 64 63 61 62 65 66 67 70 73 76 80 82 82 82 80 78 77 75 73 73 73 73 71
21 22 24 26 26 27 29 30 32 34 36 38 39 41 42 43 45 47 48 48 50 53 56 60 62 66 68 71 75 79 82 84 84 85 86 86 85 85 84 82 81 81 80 78 76 73 71 67 64 64 65 66 67 67 66 65 64 63 63 63 63 63 64 67 69 69 70 73 74 72 71 74 78 82 83 84 83 81 79 77 74 72 71 72 73 72 71
21 22 24 25 26 27 29 30 32 35 36 38 39 40 41 43 45 46 47 48 51 54 57 60 63 65 68 71 75 79 83 84 84 84 84 85 85 84 82 80 79 80 79 77 75 72 69 65 63 64 66 66 66 66 65 64 63 62 63 63 62 62 63 67 70 71 73 77 78 77 75 77 80 83 85 84 83 81 78 75 73 71 70 70 70 70 69
21 22 23 25 25 27 29 30 33 35 36 38 39 40 41 42 43 45 46 48 51 54 58 61 63 65 67 71 75 80 84 85 84 83 83 84 84 82 80 79 79 78 77 75 72 70 67 64 63 64 65 65 64 64 63 62 60 60 59 59 59 60 62 66 68 70 71 74 77 78 79 81 83 86 86 84 82 79 76 73 72 71 69 69 69 69 69
21 22 23 24 25 27 28 30 33 35 36 38 39 39 40 41 43 45 47 49 52 55 58 60 62 64 67 71 75 80 84 85 83 81 81 81 81 80 79 79 79 78 76 74 71 68 66 64 64 65 66 65 64 63 62 58 56 55 55 55 56 58 60 63 66 68 70 74 77 79 81 83 84 85 84 80 77 75 72 71 69 68 66 66 67 67 67
20 21 23 24 25 26 28 30 32 34 35 36 37 37 39 42 45 47 49 51 54 56 59 61 62 65 68 71 75 80 83 83 82 80 79 78 78 79 79 78 77 77 76 74 72 69 67 66 66 67 67 66 63 61 58 53 51 51 52 52 53 55 58 61 65 69 73 77 79 80 80 79 79 79 78 76 74 74 72 71 69 66 64 64 65 65 65
20 21 22 23 24 26 28 30 32 33 34 35 36 38 40 43 45 47 49 52 54 57 60 61 63 65 68 72 75 79 82 82 81 79 76 75 76 78 78 76 76 76 76 75 73 70 68 67 68 68 66 64 61 57 54 52 51 51 51 50 51 54 57 62 67 71 75 77 77 77 76 75 75 76 75 75 75 75 75 73 71 67 65 66 67 66 66
19 21 22 23 24 26 28 30 31 33 33 34 36 38 41 43 45 47 49 52 54 57 59 61 63 65 69 73 75 78 80 81 80 78 75 74 75 77 77 75 75 75 75 75 74 72 70 69 68 66 63 60 58 55 53 52 52 52 51 50 51 55 58 62 66 68 69 70 71 72 73 74 74 75 76 76 77 78 78 77 76 72 70 69 69 69 69
19 20 21 23 24 26 28 30 31 32 33 35 37 39 41 43 45 48 50 52 55 57 60 61 63 66 71 74 75 76 77 78 79 77 75 75 75 75 75 74 73 73 73 73 74 73 72 71 68 64 60 58 56 54 53 52 51 51 50 50 52 54 56 59 61 62 63 64 66 68 71 72 73 74 75 76 76 77 78 78 78 78 77 75 74 74 74
19 20 22 23 25 27 28 30 32 33 34 35 37 38 40 43 45 48 51 53 55 58 61 62 64 68 73 75 74 73 74 76 77 77 76 75 74 73 73 73 72 72 72 73 73 74 73 71 67 63 59 57 55 53 52 51 50 49 50 50 50 50 52 53 55 56 58 59 60 63 65 67 69 70 71 71 72 72 73 73 73 74 75 76 76 76 77
19 21 22 23 25 27 29 30 32 33 35 36 37 39 41 43 45 48 51 53 56 59 61 63 65 69 73 75 74 72 72 73 74 75 74 73 72 73 73 72 72 72 72 73 73 73 72 69 65 62 59 57 55 53 52 52 51 51 51 50 48 47 47 47 48 49 50 51 52 54 57 59 62 64 66 68 69 70 71 72 72 72 73 74 75 76 78
20 21 23 24 26 27 29 31 32 33 35 36 38 40 42 44 46 49 51 53 55 58 61 63 66 70 74 75 73 72 72 72 73 73 73 72 72 73 74 73 73 73 73 72 72 71 70 67 64 61 60 58 57 56 55 55 55 54 52 50 47 45 43 42 42 43 43 44 45 47 49 52 54 57 59 62 65 67 69 71 73 75 77 78 79 80 81
21 22 23 25 26 28 30 31 32 34 35 37 39 41 43 45 48 50 52 53 56 58 61 63 67 71 74 74 73 71 71 71 72 73 73 72 72 73 73 74 73 72 71 71 70 69 67 65 63 61 60 60 60 59 59 57 55 53 51 48 46 45 43 42 41 41 41 42 43 43 45 46 48 50 52 54 57 60 62 65 68 71 74 76 78 80 81
21 22 24 26 27 29 30 32 33 34 36 38 39 41 43 46 49 51 53 55 57 59 62 64 67 71 74 74 73 72 72 71 72 72 73 73 72 72 71 71 72 72 71 70 69 67 65 64 63 62 62 63 63 62 60 57 54 52 50 48 47 46 45 44 43 43 42 42 42 42 43 43 44 46 47 49 51 53 54 56 59 61 63 65 67 68 69
21 22 24 25 27 28 30 31 33 34 36 37 39 40 42 44 47 50 53 55 57 59 62 64 67 71 74 75 74 73 72 72 71 72 72 72 71 70 69 69 70 70 70 69 67 66 65 64 64 64 64 63 63 61 59 56 54 52 51 50 49 48 47 46 45 44 44 43 43 44 44 44 44 45 46 47 48 49 51 52 53 55 56 58 59 59 60
21 22 23 24 26 27 28 29 31 32 34 36 38 40 41 43 45 48 51 54 56 59 62 65 68 71 74 75 74 72 72 71 71 71 71 70 69 69 70 70 69 68 67 66 65 65 64 64 64 64 63 62 61 59 57 55 54 54 53 51 51 50 49 48 47 46 45 45 45 45 45 46 47 48 48 49 50 51 52 53 54 55 56 57 58 59 60
20 21 22 24 25 25 26 27 29 30 33 35 38 40 42 44 46 48 50 52 55 58 61 64 67 70 72 74 73 72 72 72 71 70 70 69 69 70 71 71 69 67 66 65 64 64 65 65 64 63 61 60 58 57 57 57 56 55 54 53 52 51 50 50 49 49 48 48 49 49 49 49 50 51 52 53 53 54 55 57 58 59 59 60 62 63 64
20 21 22 23 24 25 26 28 29 31 33 35 37 39 41 44 46 48 50 52 55 58 60 62 65 68 70 72 73 72 72 72 72 71 70 70 71 72 71 70 67 65 64 64 65 65 65 64 62 60 59 58 58 58 58 57 57 56 56 54 54 53 52 52 52 52 52 52 52 52 52 53 53 54 55 56 57 59 60 61 61 62 63 64 66 67 68
21 22 23 24 26 27 28 29 30 32 33 35 36 38 40 42 45 47 49 51 54 56 59 61 64 66 68 70 71 72 72 72 71 72 72 72 72 71 69 67 65 64 64 66 67 67 64 61 59 58 58 58 58 58 58 57 57 57 57 56 55 54 54 54 55 55 55 55 55 54 55 55 56 57 58 60 61 63 64 65 65 66 67 68 69 71 72
21 23 24 25 27 28 29 30 31 32 33 34 35 37 39 41 44 46 47 49 52 54 57 60 63 65 66 68 69 70 72 72 72 72 72 72 70 68 66 64 63 64 65 67 67 65 63 61 59 59 59 59 58 58 58 58 58 58 58 57 57 56 56 56 56 56 56 56 56 57 57 58 59 60 61 63 65 66 67 68 69 70 71 72 73 75 76
21 22 23 24 25 27 29 30 31 32 33 35 36 37 39 41 43 44 46 49 51 54 56 58 61 63 64 65 66 67 69 71 72 71 70 69 67 66 65 65 64 65 66 66 66 65 64 63 62 60 59 59 59 59 59 58 58 58 58 58 57 57 58 58 58 58 58 59 59 60 60 61 62 64 65 67 68 69 70 71 72 74 75 75 76 77 79
21 21 22 23 25 26 28 29 30 31 32 34 36 38 40 41 43 44 45 47 50 53 55 57 59 60 61 62 63 64 66 67 68 68 68 67 66 65 65 65 65 65 65 65 65 65 65 64 63 62 61 61 60 59 59 59 59 59 59 58 59 59 59 60 60 60 61 61 62 63 64 64 65 67 68 69 70 71 72 74 75 77 78 79 79 80 81
21 22 22 23 24 26 27 29 30 31 32 33 34 36 38 40 42 43 44 46 49 52 54 56 58 60 61 62 62 62 63 63 63 64 65 66 66 66 66 65 64 64 64 64 64 64 64 63 63 62 62 61 61 61 60 60 60 60 60 60 61 61 62 62 63 63 64 65 65 66 66 67 68 69 70 71 72 73 74 76 77 79 80 81 82 83 83
Wind_Direction
293 292 292 291 290 289 288 287 288 291 291 287 281 276 272 269 268 268 269 269 270 270 270 268 265 260 252 243 239 238 235 233 231 229 227 225 224 224 224 224 225 225 225 225 225 227 228 228 228 229 228 228 228 229 232 234 233 233 234 236 237 238 239 241 243 243 243 243 243 245 247 248 249 250 251 253 254 255 256 257 258 257 257 259 261 260 259
294 293 293 293 291 289 288 287 288 288 287 283 278 273 268 266 265 265 265 267 270 271 270 268 265 261 254 245 240 239 236 234 231 227 226 224 222 222 223 223 224 225 225 225 225 226 227 227 227 227 227 227 228 229 231 234 235 234 234 235 237 239 239 241 243 243 243 244 245 247 250 252 253 253 253 254 255 255 256 257 258 259 260 260 260 259 258
295 295 294 292 291 290 289 288 286 285 282 278 274 269 265 264 264 263 264 266 268 268 267 265 263 260 254 248 244 241 239 237 232 227 225 223 221 221 221 222 223 224 225 225 225 225 226 227 227 226 225 226 228 229 230 233 235 235 235 235 237 238 239 240 243 244 244 245 247 249 252 254 253 252 252 254 254 254 254 255 256 258 260 259 258 258 258
297 295 294 292 290 289 288 286 283 280 278 274 270 267 264 262 263 263 263 264 264 263 263 263 263 260 255 251 248 243 241 239 232 225 223 222 220 219 219 220 222 223 224 224 225 225 225 226 227 227 225 224 226 228 229 231 234 235 236 236 237 238 239 240 242 244 244 244 244 245 247 249 250 250 249 250 252 252 251 252 254 256 258 258 258 259 260
296 294 292 290 288 287 285 282 280 277 274 271 268 265 263 263 263 264 263 262 261 261 262 262 262 260 256 252 249 243 242 240 233 225 221 220 219 218 217 219 220 222 223 224 224 224 224 225 227 228 227 226 226 227 228 230 233 235 236 237 238 239 239 241 243 244 244 243 243 243 245 247 250 251 251 251 252 253 253 254 256 257 258 260 261 261 262
294 292 289 287 286 284 282 279 277 274 272 270 267 265 264 263 264 263 262 261 260 260 260 260 261 259 256 253 250 244 242 240 234 225 220 218 217 217 217 218 219 220 222 223 223 223 223 224 226 227 227 227 227 227 228 230 231 233 236 237 238 239 240 241 243 244 245 244 244 245 246 247 249 251 253 253 254 256 257 257 258 258 259 261 261 261 261
291 289 287 285 283 281 279 277 275 273 271 269 267 265 263 263 262 262 261 260 259 259 259 259 259 258 256 253 249 244 242 241 235 226 220 217 216 216 216 218 219 219 220 222 221 221 222 223 225 226 226 227 229 228 228 229 229 231 234 237 238 239 239 241 242 243 244 244 244 245 246 247 247 249 251 253 254 256 258 258 258 259 260 261 262 263 263
290 288 285 283 281 279 276 275 273 270 268 266 264 263 261 260 260 260 259 258 257 257 257 257 257 257 254 251 248 244 243 243 237 228 221 216 215 214 214 217 219 219 220 222 221 221 222 222 223 225 225 226 228 229 229 229 229 230 232 234 236 237 238 240 241 243 244 244 244 244 246 247 248 249 250 253 255 257 258 259 259 259 260 262 263 265 267
288 286 283 281 278 276 274 272 269 267 264 262 261 259 258 256 256 256 255 255 255 254 254 254 254 254 253 250 248 245 243 242 239 232 224 218 215 214 213 215 218 219 220 222 222 221 222 223 223 224 224 224 225 227 228 229 230 231 233 234 236 237 237 238 240 242 243 244 245 245 246 248 249 249 250 253 255 255 256 257 257 257 258 260 263 265 267
286 283 281 278 276 273 271 268 266 264 261 258 256 255 254 253 252 252 251 252 252 251 251 251 252 252 251 249 246 244 241 239 236 232 226 220 217 215 214 214 216 218 220 222 222 222 221 222 223 224 225 225 224 225 227 228 228 230 232 235 236 237 238 239 240 241 243 244 245 245 246 247 248 249 250 251 253 254 255 256 257 258 260 261 263 265 266
283 281 278 276 273 271 268 266 263 261 258 255 253 251 250 249 248 248 248 248 248 248 248 249 249 250 249 246 244 243 241 239 235 231 226 221 217 215 215 216 216 217 218 220 222 222 222 222 222 224 226 226 226 226 228 228 227 228 231 234 235 236 238 240 241 242 243 244 245 246 245 247 249 250 250 252 254 256 257 258 258 260 261 262 263 264 264
281 278 276 273 271 269 266 264 261 259 256 254 251 249 248 247 246 245 245 245 245 245 245 246 247 248 247 244 242 242 241 239 237 233 228 223 218 213 213 216 217 218 218 219 220 222 222 222 223 224 226 227 226 227 229 230 229 230 231 232 234 236 239 241 242 243 244 245 246 247 247 248 251 252 252 253 254 257 259 260 260 260 259 260 261 262 262
279 276 274 272 269 267 265 262 260 257 255 252 250 247 246 245 244 243 242 242 243 242 242 243 245 246 245 242 240 240 239 237 236 233 227 222 219 214 211 213 216 218 219 220 220 221 222 223 223 224 226 227 227 228 230 230 230 231 232 232 233 234 237 240 241 242 243 245 246 248 249 250 251 253 254 254 255 256 258 261 263 262 261 261 261 261 261
277 275 272 270 267 265 263 260 258 256 253 251 248 246 244 243 242 241 240 239 240 240 240 241 242 243 242 240 237 237 236 232 231 230 225 220 217 213 211 211 214 216 218 220 221 222 222 222 223 225 227 228 228 228 230 230 230 231 232 232 233 234 235 238 240 241 242 244 246 248 249 251 252 254 255 257 258 259 259 260 262 263 262 262 261 262 262
276 273 270 268 266 263 261 259 256 254 252 250 247 245 243 241 240 239 238 237 237 238 238 239 239 239 239 236 233 233 232 228 225 225 222 218 215 212 209 210 213 214 215 217 220 223 224 223 222 224 227 228 228 229 230 231 231 232 233 233 233 234 236 237 240 242 243 245 247 249 250 251 252 254 255 256 257 258 258 259 260 261 262 262 263 264 264
275 272 269 267 264 262 259 257 254 252 250 248 246 243 241 240 238 237 236 235 235 236 236 236 236 236 235 232 228 228 228 224 221 220 218 216 214 210 208 208 211 213 213 215 217 220 223 224 223 223 225 226 227 228 229 230 230 232 233 234 234 235 236 237 240 242 243 245 246 248 250 251 251 253 254 254 255 256 258 260 261 261 263 264 264 265 266
274 271 268 266 263 260 258 255 252 250 248 246 244 241 240 238 236 235 234 233 233 234 234 233 233 233 231 228 225 224 223 220 217 215 215 214 212 209 208 208 210 211 212 213 215 216 219 221 222 223 225 226 227 227 228 228 229 231 233 234 235 236 236 236 238 240 242 243 244 245 247 248 250 252 254 255 256 257 259 260 261 262 264 265 266 266 266
273 270 267 265 262 259 256 253 251 248 246 244 242 239 237 236 234 233 232 230 230 231 231 230 229 230 228 224 221 220 219 216 213 211 211 211 209 208 208 208 209 209 210 212 214 215 217 219 220 221 223 225 226 227 229 229 229 230 232 233 235 236 237 236 238 239 240 242 243 244 246 247 249 252 254 256 258 258 259 259 261 263 264 265 266 267 268
272 269 266 263 260 257 254 252 249 246 244 242 240 237 235 234 232 231 229 228 228 229 228 226 226 226 224 220 217 217 216 213 210 208 207 207 206 206 207 208 209 209 210 212 213 214 216 217 219 221 223 224 226 226 228 230 230 231 233 233 234 236 238 238 238 240 241 243 244 246 247 248 250 251 253 255 257 257 258 259 261 262 264 265 266 267 268
271 268 264 261 257 255 252 249 246 243 241 240 237 234 233 232 230 228 227 225 226 226 225 223 223 223 220 216 214 213 212 210 206 204 203 203 203 203 204 205 207 208 209 211 213 214 215 216 218 220 222 223 225 225 227 229 230 231 233 234 233 234 237 238 238 240 242 244 246 247 248 249 250 251 252 253 254 256 257 259 260 261 262 263 264 266 267
269 265 261 258 255 252 250 247 244 241 239 237 235 232 230 229 227 226 224 223 224 224 222 220 221 221 218 214 211 211 209 207 204 201 200 199 200 202 202 202 204 206 207 209 211 213 215 216 217 218 220 222 224 225 226 227 229 231 234 235 235 234 236 239 240 241 242 244 245 247 249 249 249 250 251 253 254 256 257 258 258 259 259 261 262 264 266
267 263 259 256 252 250 247 244 241 238 236 235 232 229 227 226 224 223 222 221 222 222 219 218 219 219 216 212 210 209 207 205 201 199 198 197 197 200 201 201 201 203 206 208 210 211 213 215 216 217 219 220 222 225 226 227 230 232 235 237 237 236 237 239 240 241 243 244 245 246 248 250 251 252 253 253 254 256 257 258 258 259 259 260 261 263 265
265 261 257 253 250 247 244 241 238 235 234 232 229 226 224 223 221 220 220 220 220 219 217 216 217 216 212 210 209 207 205 202 199 197 197 196 196 198 200 200 201 203 205 207 209 210 213 215 217 218 220 221 222 224 225 227 229 231 234 237 238 238 238 239 239 240 241 242 243 244 245 247 249 250 253 254 254 255 257 259 261 261 262 262 263 264 266
263 259 255 251 248 245 241 238 235 232 231 229 226 223 221 220 219 218 218 218 218 217 215 214 215 213 209 207 207 205 203 201 198 196 197 196 194 196 200 201 202 203 205 206 208 211 213 216 218 219 221 222 223 224 226 227 228 229 231 234 237 237 237 238 239 239 239 240 241 241 240 240 242 247 253 255 255 255 256 258 260 261 262 263 264 264 266
260 257 253 249 245 242 238 234 231 229 227 225 222 220 219 218 217 216 216 216 216 215 213 213 213 209 205 204 203 202 201 199 196 195 197 196 194 195 199 202 203 205 206 207 208 211 213 215 217 219 220 223 224 225 226 227 228 229 230 232 234 235 235 237 238 239 239 239 239 239 238 236 236 240 248 253 256 256 255 256 257 258 259 261 262 262 263
257 254 250 246 242 238 234 231 228 225 223 222 219 217 216 216 215 213 213 214 214 212 210 210 209 205 202 201 200 200 199 197 195 195 196 197 195 194 197 200 202 204 205 207 209 211 212 214 216 217 219 222 224 225 226 227 228 229 230 231 233 235 236 237 238 238 239 239 238 238 237 236 235 235 240 246 251 254 255 256 257 258 258 259 260 259 258
254 250 246 242 238 234 230 227 224 221 220 218 216 214 214 213 211 210 210 211 210 208 207 207 205 202 200 200 199 199 198 196 195 195 196 197 197 196 196 199 201 202 203 206 209 211 212 214 216 216 218 221 224 225 227 229 229 229 231 232 233 235 236 237 238 238 239 239 238 237 237 237 237 237 239 242 247 251 254 256 258 259 259 259 259 259 259
249 245 241 237 234 230 226 223 220 218 216 214 213 212 211 209 207 207 207 208 207 205 204 204 202 200 199 199 198 198 197 196 195 195 197 198 198 197 197 199 201 202 203 205 208 210 211 213 216 217 218 221 223 225 227 229 230 231 231 231 232 233 234 235 236 236 237 238 238 236 237 239 240 241 243 244 247 250 253 255 257 259 259 259 259 259 259
245 240 236 232 229 225 222 219 216 214 212 211 209 208 206 204 204 205 205 204 203 202 201 201 200 198 198 198 197 197 197 197 196 196 197 197 198 198 198 199 201 203 204 206 208 209 211 213 215 217 219 221 223 225 227 228 229 230 230 230 230 230 230 229 228 226 225 229 233 233 234 237 239 240 242 244 247 250 252 254 256 258 259 258 257 256 256
240 235 230 228 225 221 217 215 212 210 209 207 206 204 202 201 202 203 203 202 200 199 199 199 198 197 197 197 196 196 197 197 196 197 197 197 198 199 199 200 202 203 206 208 209 210 212 213 213 216 219 220 222 223 225 226 226 227 227 227 227 227 224 222 221 218 216 221 227 229 231 234 235 236 239 242 245 248 250 253 256 258 258 257 256 256 256
235 229 226 223 220 216 213 211 208 207 205 204 203 201 199 199 200 200 200 199 197 197 197 197 197 197 196 196 196 196 196 197 197 197 197 197 198 200 200 201 203 204 206 208 210 212 213 212 212 215 219 220 221 222 223 224 224 224 225 225 225 225 223 221 221 219 217 219 223 225 227 232 235 236 238 241 244 247 250 253 256 256 255 255 256 258 258
228 225 222 220 216 213 210 208 205 204 203 202 201 199 198 199 199 199 197 196 195 195 195 195 196 196 195 195 195 195 196 197 197 197 197 197 199 200 200 202 204 206 206 207 209 211 212 212 212 216 219 221 222 223 223 224 224 224 225 225 225 225 224 223 224 224 223 225 228 228 227 231 235 238 239 241 244 247 250 252 252 251 252 253 254 256 256
223 220 218 216 213 210 207 205 203 202 201 200 199 198 197 197 197 197 195 194 193 194 194 195 195 195 194 195 195 194 195 197 198 198 197 198 199 199 200 202 205 207 207 207 208 210 212 211 213 217 220 221 222 223 222 223 224 225 227 228 228 227 227 227 228 230 230 231 234 234 232 232 235 239 241 244 246 248 250 250 249 250 250 250 250 252 253
218 216 214 212 209 207 205 203 201 199 199 199 198 197 195 194 194 194 193 192 192 193 194 194 194 194 194 194 194 194 195 197 198 198 198 198 199 199 199 202 206 208 208 207 208 210 211 211 213 217 220 220 221 222 222 222 224 226 227 229 229 230 230 231 232 233 234 234 235 236 236 236 237 240 243 246 247 248 248 248 248 249 249 249 249 250 251
213 212 210 208 206 203 202 200 198 197 197 197 196 195 194 193 193 192 191 190 191 191 193 194 194 193 193 194 194 194 195 197 197 198 199 198 198 198 199 202 206 209 209 208 209 209 210 211 213 217 220 221 221 223 223 221 223 226 228 229 230 231 232 233 233 234 234 235 235 236 237 239 240 242 244 245 246 246 246 247 247 247 246 246 247 248 249
208 207 206 204 202 200 199 197 196 196 195 194 194 193 193 192 192 191 190 190 190 191 192 193 193 193 192 193 194 194 196 197 197 199 199 198 196 197 199 201 205 208 209 209 209 209 210 212 214 217 220 222 222 223 223 222 222 225 227 228 228 229 230 231 232 233 234 235 237 238 239 241 242 243 244 245 245 245 245 246 246 246 244 243 245 246 246
203 203 203 200 198 197 196 195 194 193 193 192 193 193 192 191 191 190 190 190 190 191 192 193 193 192 191 192 194 195 195 196 198 199 199 198 197 197 199 201 205 208 209 209 209 209 210 212 214 216 219 222 223 224 224 224 224 226 228 228 228 229 229 230 231 233 235 237 239 240 242 242 243 243 244 244 245 246 246 246 246 245 243 242 242 243 245
199 199 198 196 194 194 193 192 191 191 190 191 192 192 191 190 189 189 189 189 189 191 192 193 192 191 191 192 194 195 195 196 197 199 200 199 198 198 199 201 205 208 210 210 211 211 211 212 213 215 217 221 224 225 227 228 228 229 231 232 232 232 233 234 235 236 237 238 239 240 241 242 242 243 244 244 245 246 246 247 246 245 243 243 243 244 246
195 195 193 191 191 190 190 189 189 188 188 189 191 191 190 189 188 188 188 189 189 190 192 192 192 190 191 193 195 195 194 195 196 198 200 201 200 199 199 201 204 208 210 211 212 213 213 213 214 214 217 221 224 226 228 229 230 231 233 234 236 236 238 239 240 240 241 241 241 241 242 242 243 244 244 245 245 245 245 245 244 244 244 244 245 246 248
191 191 189 188 187 187 187 187 187 187 187 188 189 189 189 187 187 188 188 189 189 190 191 192 192 191 191 193 195 195 194 194 195 197 198 200 200 199 200 202 205 207 210 212 214 215 216 216 216 216 218 220 223 225 227 229 230 231 232 234 236 237 240 241 243 244 246 247 247 247 247 247 246 246 245 245 245 245 244 243 243 243 244 245 245 246 247
187 186 185 185 185 184 185 185 186 186 186 186 187 187 187 186 186 187 188 189 190 190 191 192 192 191 192 194 196 196 195 194 195 197 198 200 200 200 201 203 205 208 210 213 214 216 217 218 218 219 220 221 223 225 227 229 230 232 234 235 236 238 241 243 246 247 248 248 248 249 249 249 249 249 248 248 247 247 246 245 245 245 246 246 247 248 249
184 183 182 182 182 183 184 184 185 185 185 186 186 186 186 185 185 186 187 189 189 190 192 192 192 192 193 195 196 196 196 196 196 197 199 201 202 202 202 203 205 208 211 213 215 217 218 219 219 220 221 223 224 226 228 230 232 235 237 239 241 242 243 244 246 247 248 248 248 249 249 249 250 250 250 250 250 250 250 250 249 249 249 250 251 252 253
181 181 180 180 181 182 183 184 184 184 184 185 186 187 186 185 185 185 187 188 189 190 192 193 192 192 193 195 196 197 197 197 197 199 200 203 205 205 205 205 206 209 211 213 214 217 218 219 220 220 222 223 225 228 230 232 234 237 239 242 243 244 245 245 245 246 247 248 249 250 251 251 252 252 253 253 253 253 254 254 254 255 255 256 257 258 259
178 179 180 180 180 182 183 184 184 184 184 184 185 186 187 187 186 186 186 187 188 190 191 192 193 194 194 196 197 199 199 199 199 200 202 204 206 208 209 209 209 210 211 213 214 216 218 219 220 222 223 225 227 230 232 234 235 237 239 241 243 245 246 247 248 248 249 249 251 252 253 254 254 255 255 255 256 256 257 258 258 259 260 261 262 263 263
174 176 178 179 180 181 182 184 183 183 183 183 184 185 186 187 187 188 187 187 188 190 191 192 193 195 195 197 198 200 201 201 201 202 203 205 207 209 211 213 213 213 213 214 215 217 219 220 222 223 225 227 229 230 232 234 236 238 239 241 243 245 247 249 251 253 254 255 255 256 257 258 259 259 260 260 260 260 261 262 262 263 264 265 266 267 268
171 173 175 177 178 178 179 180 181 182 182 183 184 185 186 186 187 188 188 188 188 190 192 193 194 195 196 197 199 200 201 202 203 204 205 206 207 209 212 214 215 215 216 217 218 219 221 222 223 224 225 227 229 231 233 235 237 238 240 241 243 246 248 251 253 254 255 257 258 259 259 260 261 262 263 264 264 264 265 265 266 267 268 269 270 271 272
167 169 171 173 174 174 175 177 179 180 182 183 184 186 187 187 186 187 188 188 189 191 193 194 195 196 197 198 199 200 202 203 204 205 206 208 209 211 213 215 216 217 218 220 221 222 223 224 224 225 227 229 230 232 234 236 238 240 241 243 245 247 249 251 253 254 255 257 258 259 260 261 262 263 264 265 266 266 267 268 269 270 271 272 273 274 275
164 166 169 170 171 171 173 176 178 180 182 183 184 186 187 187 187 188 188 189 190 191 193 194 196 198 199 200 200 202 203 204 205 206 208 210 212 213 214 216 217 219 220 221 223 225 227 227 228 228 229 231 232 234 236 237 239 241 243 244 246 248 250 251 253 255 256 258 259 260 262 263 265 266 267 268 269 269 269 270 271 272 273 274 275 276 276
162 165 168 169 170 170 171 174 177 179 180 182 184 185 187 188 188 189 188 189 190 192 194 195 196 198 200 201 202 203 204 205 206 207 209 212 214 215 216 217 218 220 221 223 225 228 229 230 231 231 232 233 234 236 238 239 241 242 244 246 248 249 251 253 254 256 258 259 261 263 264 266 267 268 269 270 270 270 271 272 273 274 275 276 277 278 279
159 162 166 167 169 170 171 172 175 178 179 181 182 184 186 188 190 190 189 189 190 192 195 197 198 199 201 202 203 204 206 207 208 209 210 212 214 216 218 219 220 222 223 225 227 229 230 232 233 234 235 236 237 238 239 241 242 244 246 248 249 251 253 254 256 257 259 260 262 264 265 267 268 269 270 270 271 272 274 275 276 277 278 279 280 280 281
154 158 163 165 167 169 170 171 174 177 179 181 182 184 185 188 190 192 192 190 190 192 195 197 199 201 203 204 205 206 207 209 210 211 212 213 214 216 218 220 222 223 225 226 227 229 230 232 234 235 236 237 238 240 241 242 244 245 247 249 250 252 254 255 257 258 260 261 263 264 266 267 268 270 271 272 273 274 276 277 278 279 280 281 281 282 283
150 155 159 162 165 168 170 172 173 176 178 180 183 185 186 188 190 192 193 193 192 192 195 197 200 202 204 205 206 207 208 210 211 212 213 214 215 216 218 220 222 224 225 226 228 229 231 232 234 235 237 238 240 241 242 244 245 247 248 250 251 253 255 256 258 259 261 262 264 265 267 268 269 270 272 273 274 275 276 278 279 280 281 282 283 284 285
Height
10685 10683 10680 10679 10677 10676 10676 10674 10672 10669 10666 10667 10668 10666 10664 10660 10661 10666 10667 10665 10668 10671 10674 10676 10678 10681 10682 10684 10689 10691 10693 10696 10697 10705 10716 10724 10731 10737 10745 10755 10764 10769 10774 10779 10785 10790 10797 10805 10813 10822 10831 10838 10842 10842 10839 10839 10845 10854 10861 10866 10869 10870 10873 10874 10876 10884 10890 10894 10898 10896 10895 10901 10908 10912 10914 10914 10916 10918 10918 10919 10920 10920 10923 10925 10928 10933 10937
10671 10669 10667 10666 10664 10664 10664 10662 10661 10659 10654 10653 10656 10656 10654 10650 10649 10655 10659 10658 10660 10664 10664 10664 10667 10669 10671 10675 10679 10681 10685 10687 10688 10697 10706 10712 10720 10727 10735 10745 10752 10755 10759 10766 10774 10780 10787 10795 10803 10812 10821 10828 10830 10831 10831 10830 10836 10848 10856 10860 10861 10861 10867 10870 10868 10874 10882 10886 10891 10893 10892 10897 10904 10908 10909 10908 10909 10911 10912 10913 10912 10912 10917 10919 10921 10926 10929
10656 10655 10653 10652 10651 10650 10650 10648 10647 10646 10642 10640 10643 10644 10644 10640 10637 10643 10651 10652 10653 10654 10651 10651 10655 10658 10661 10667 10670 10673 10677 10677 10680 10688 10695 10702 10710 10717 10725 10735 10741 10742 10748 10758 10766 10773 10779 10787 10794 10802 10811 10816 10818 10820 10824 10825 10831 10843 10849 10850 10850 10852 10860 10862 10858 10866 10877 10883 10890 10893 10890 10890 10894 10899 10901 10901 10901 10903 10905 10905 10903 10905 10909 10910 10913 10917 10920
10640 10638 10637 10636 10635 10634 10634 10633 10632 10633 10630 10627 10629 10632 10631 10629 10627 10632 10641 10644 10643 10641 10638 10640 10645 10649 10654 10659 10661 10664 10666 10666 10669 10678 10686 10693 10701 10707 10714 10722 10726 10730 10739 10748 10755 10763 10772 10780 10787 10791 10797 10803 10806 10809 10815 10821 10827 10835 10839 10839 10840 10845 10851 10852 10852 10860 10870 10878 10883 10884 10881 10878 10880 10887 10893 10893 10891 10892 10894 10896 10898 10900 10899 10900 10906 10910 10911
10622 10621 10620 10618 10617 10616 10616 10616 10616 10618 10617 10614 10615 10619 10618 10618 10618 10621 10627 10631 10632 10630 10628 10631 10636 10639 10645 10648 10650 10654 10657 10656 10660 10668 10675 10682 10688 10694 10701 10706 10711 10720 10728 10735 10744 10752 10763 10773 10776 10777 10785 10794 10798 10803 10811 10818 10823 10826 10828 10829 10831 10838 10843 10845 10849 10854 10860 10868 10873 10873 10872 10873 10874 10879 10882 10883 10882 10883 10885 10890 10894 10893 10890 10893 10899 10901 10903
10604 10602 10601 10599 10599 10598 10598 10599 10599 10602 10603 10600 10601 10605 10606 10605 10606 10608 10611 10616 10621 10620 10617 10621 10626 10629 10634 10638 10640 10645 10647 10647 10652 10658 10663 10669 10675 10684 10692 10695 10700 10709 10714 10720 10731 10740 10751 10760 10760 10764 10778 10787 10792 10800 10808 10811 10815 10818 10819 10820 10824 10831 10836 10840 10844 10846 10848 10857 10864 10864 10865 10869 10872 10873 10872 10872 10873 10875 10878 10884 10887 10883 10882 10888 10890 10890 10896
10584 10582 10581 10580 10580 10580 10580 10581 10581 10584 10588 10586 10586 10590 10592 10591 10593 10595 10598 10602 10608 10609 10605 10609 10615 10618 10621 10627 10630 10634 10638 10639 10642 10647 10651 10658 10665 10675 10683 10684 10688 10695 10699 10706 10718 10728 10738 10745 10748 10758 10774 10782 10787 10796 10800 10801 10807 10811 10811 10811 10815 10823 10830 10833 10835 10836 10838 10846 10854 10856 10857 10861 10866 10866 10864 10863 10865 10868 10871 10876 10878 10875 10874 10879 10879 10881 10891
10563 10562 10560 10559 10559 10559 10560 10561 10562 10564 10568 10569 10570 10573 10575 10576 10578 10581 10584 10587 10592 10596 10594 10597 10603 10606 10609 10617 10621 10626 10630 10631 10632 10636 10641 10646 10653 10661 10668 10672 10677 10685 10691 10698 10709 10720 10727 10735 10743 10755 10767 10775 10780 10786 10790 10792 10797 10801 10801 10802 10807 10814 10821 10824 10824 10825 10829 10836 10843 10847 10849 10854 10857 10858 10858 10858 10860 10863 10864 10866 10869 10867 10868 10871 10870 10874 10885
10541 10539 10538 10537 10537 10537 10538 10540 10541 10542 10547 10550 10553 10555 10557 10560 10563 10565 10570 10573 10577 10581 10582 10585 10591 10594 10599 10607 10612 10616 10620 10620 10621 10627 10633 10638 10641 10647 10655 10662 10669 10678 10685 10692 10700 10710 10718 10728 10740 10749 10755 10762 10769 10773 10777 10782 10789 10795 10796 10796 10801 10807 10811 10813 10814 10817 10822 10828 10834 10839 10844 10847 10847 10849 10854 10854 10852 10853 10854 10855 10857 10859 10864 10867 10866 10870 10880
10518 10516 10515 10514 10514 10514 10516 10518 10519 10521 10525 10530 10534 10537 10538 10542 10546 10550 10555 10559 10561 10566 10570 10573 10578 10582 10588 10596 10601 10603 10606 10607 10610 10617 10625 10630 10636 10644 10652 10656 10661 10669 10676 10682 10690 10700 10711 10722 10734 10740 10743 10750 10760 10764 10766 10772 10782 10788 10787 10788 10795 10801 10801 10804 10808 10812 10816 10821 10826 10833 10838 10838 10836 10841 10848 10846 10842 10842 10845 10847 10848 10852 10860 10864 10862 10868 10874
10494 10493 10492 10491 10492 10492 10494 10497 10498 10500 10504 10509 10515 10519 10520 10524 10529 10535 10540 10543 10546 10551 10557 10561 10565 10570 10577 10585 10589 10592 10596 10600 10605 10612 10617 10621 10629 10641 10648 10650 10654 10659 10664 10672 10682 10693 10705 10716 10725 10731 10736 10744 10753 10757 10758 10766 10776 10780 10780 10782 10789 10793 10794 10797 10802 10806 10809 10814 10819 10824 10828 10828 10828 10834 10839 10836 10834 10836 10837 10839 10841 10846 10854 10857 10857 10862 10865
10472 10471 10470 10470 10471 10472 10473 10476 10479 10481 10484 10490 10496 10500 10503 10507 10512 10519 10524 10528 10531 10537 10543 10547 10552 10558 10566 10574 10580 10583 10589 10597 10604 10608 10611 10614 10621 10631 10638 10643 10650 10654 10658 10667 10678 10687 10698 10708 10718 10725 10730 10736 10745 10749 10753 10761 10770 10773 10773 10776 10782 10788 10789 10791 10795 10799 10801 10807 10811 10814 10817 10821 10823 10826 10829 10828 10828 10831 10829 10828 10832 10839 10845 10848 10851 10854 10854
10452 10452 10451 10451 10452 10453 10455 10458 10461 10463 10466 10471 10477 10482 10486 10491 10496 10503 10509 10512 10516 10523 10530 10533 10540 10548 10556 10564 10571 10575 10582 10591 10597 10599 10601 10605 10612 10621 10629 10637 10644 10650 10658 10668 10675 10682 10692 10703 10713 10719 10722 10727 10737 10743 10745 10754 10762 10764 10764 10769 10776 10782 10783 10781 10784 10789 10794 10800 10804 10804 10809 10815 10816 10817 10818 10818 10821 10824 10823 10820 10821 10827 10834 10839 10842 10845 10845
10434 10434 10434 10434 10435 10437 10438 10441 10445 10447 10450 10454 10460 10466 10470 10475 10481 10487 10493 10498 10502 10509 10515 10521 10530 10539 10545 10553 10561 10566 10573 10582 10585 10587 10590 10595 10602 10613 10624 10631 10637 10644 10654 10663 10670 10677 10687 10698 10708 10713 10714 10720 10729 10733 10736 10744 10752 10753 10755 10761 10768 10771 10772 10773 10775 10779 10787 10794 10796 10798 10803 10807 10807 10808 10809 10810 10813 10817 10818 10816 10814 10817 10822 10828 10832 10835 10837
10417 10418 10418 10419 10420 10422 10424 10427 10430 10433 10436 10439 10445 10451 10455 10460 10466 10471 10479 10484 10488 10494 10502 10510 10521 10527 10532 10542 10551 10556 10563 10571 10574 10576 10580 10584 10593 10605 10616 10622 10626 10633 10645 10656 10665 10673 10682 10692 10701 10705 10706 10712 10718 10723 10727 10735 10741 10743 10745 10751 10757 10760 10763 10767 10769 10773 10781 10788 10790 10792 10797 10799 10799 10800 10801 10803 10806 10808 10809 10808 10806 10807 10812 10818 10823 10826 10827
10402 10403 10404 10405 10406 10408 10410 10414 10417 10420 10423 10426 10431 10437 10442 10446 10452 10458 10465 10471 10476 10482 10491 10501 10509 10514 10521 10532 10541 10546 10553 10560 10563 10566 10570 10576 10586 10596 10604 10609 10614 10624 10637 10648 10657 10666 10674 10684 10691 10695 10697 10701 10707 10713 10718 10724 10731 10735 10737 10741 10746 10751 10756 10762 10765 10769 10776 10781 10783 10785 10787 10788 10790 10791 10792 10794 10796 10799 10802 10800 10794 10797 10804 10810 10815 10818 10819
10388 10389 10391 10392 10394 10395 10398 10401 10405 10408 10410 10414 10419 10425 10429 10434 10440 10446 10452 10459 10465 10471 10480 10489 10496 10502 10511 10522 10529 10536 10542 10549 10553 10557 10561 10569 10579 10588 10594 10600 10607 10618 10630 10638 10646 10655 10663 10671 10679 10684 10687 10691 10697 10703 10707 10714 10723 10727 10727 10731 10736 10741 10748 10755 10758 10761 10766 10770 10772 10775 10777 10779 10782 10783 10783 10786 10788 10792 10796 10791 10785 10791 10798 10799 10802 10808 10812
10376 10377 10378 10380 10382 10384 10386 10390 10393 10396 10399 10402 10408 10413 10418 10422 10428 10435 10441 10449 10453 10459 10468 10478 10484 10491 10501 10510 10518 10525 10532 10538 10544 10549 10555 10563 10573 10582 10589 10595 10602 10613 10621 10628 10636 10644 10651 10658 10666 10672 10675 10680 10687 10694 10698 10705 10714 10716 10716 10722 10728 10731 10737 10746 10749 10752 10757 10759 10760 10765 10769 10772 10777 10778 10777 10779 10782 10784 10785 10781 10780 10787 10791 10790 10792 10797 10801
10364 10365 10367 10369 10371 10373 10376 10379 10383 10386 10389 10392 10397 10403 10407 10412 10418 10425 10431 10438 10442 10448 10457 10466 10472 10479 10489 10498 10506 10514 10522 10528 10535 10541 10548 10557 10566 10575 10583 10590 10598 10607 10614 10621 10628 10634 10640 10647 10654 10660 10665 10671 10677 10685 10690 10696 10702 10704 10705 10712 10721 10724 10728 10737 10742 10745 10749 10751 10753 10758 10762 10767 10773 10775 10773 10774 10774 10772 10771 10772 10776 10781 10782 10782 10785 10786 10788
10353 10355 10356 10358 10360 10362 10365 10369 10373 10376 10379 10383 10388 10393 10398 10403 10409 10415 10421 10428 10432 10437 10446 10454 10461 10468 10476 10486 10495 10503 10511 10519 10525 10533 10541 10550 10559 10567 10575 10584 10592 10600 10607 10614 10619 10624 10630 10637 10643 10649 10655 10660 10667 10675 10682 10686 10690 10692 10694 10701 10712 10718 10721 10727 10734 10738 10742 10745 10748 10752 10756 10762 10769 10770 10766 10766 10764 10761 10762 10766 10769 10773 10774 10776 10777 10776 10777
10343 10345 10346 10348 10350 10353 10356 10360 10364 10367 10370 10374 10379 10385 10389 10394 10400 10406 10412 10417 10421 10426 10435 10445 10451 10457 10466 10476 10485 10494 10502 10510 10518 10526 10534 10542 10551 10559 10567 10576 10583 10590 10597 10603 10607 10613 10620 10626 10633 10640 10646 10652 10661 10668 10674 10678 10681 10684 10686 10693 10705 10713 10716 10720 10727 10733 10736 10739 10742 10745 10749 10755 10760 10759 10757 10757 10756 10754 10756 10759 10759 10762 10766 10768 10770 10770 10768
10334 10335 10337 10340 10342 10344 10348 10352 10355 10359 10362 10365 10371 10377 10381 10386 10392 10398 10403 10407 10411 10417 10428 10436 10441 10448 10459 10470 10478 10486 10495 10503 10511 10519 10526 10534 10543 10552 10561 10568 10574 10580 10586 10592 10598 10606 10611 10615 10622 10630 10636 10646 10654 10660 10666 10672 10675 10678 10682 10688 10697 10706 10711 10715 10720 10725 10728 10731 10734 10738 10741 10746 10749 10748 10747 10749 10749 10747 10748 10749 10750 10753 10756 10758 10761 10762 10761
10326 10327 10329 10332 10334 10337 10340 10343 10347 10351 10354 10358 10364 10370 10373 10378 10384 10389 10393 10398 10403 10410 10421 10427 10432 10441 10453 10463 10472 10481 10490 10497 10505 10512 10519 10528 10538 10547 10554 10561 10566 10572 10578 10585 10593 10599 10603 10608 10616 10624 10631 10639 10646 10652 10658 10664 10668 10674 10680 10682 10687 10697 10705 10708 10711 10715 10719 10722 10726 10731 10735 10739 10740 10739 10737 10738 10740 10741 10742 10741 10741 10743 10745 10748 10752 10754 10754
10318 10320 10322 10324 10327 10329 10332 10336 10340 10343 10347 10351 10357 10362 10366 10370 10375 10380 10386 10391 10396 10404 10413 10419 10425 10436 10448 10458 10467 10477 10484 10491 10499 10506 10514 10523 10532 10541 10548 10553 10560 10567 10574 10580 10587 10592 10597 10604 10613 10620 10627 10633 10640 10646 10652 10656 10662 10670 10674 10675 10680 10690 10696 10697 10700 10706 10710 10714 10718 10724 10729 10732 10734 10733 10731 10729 10730 10734 10736 10735 10735 10735 10736 10739 10744 10747 10747
10311 10313 10315 10317 10320 10322 10326 10330 10333 10337 10341 10345 10350 10355 10359 10363 10368 10374 10380 10386 10391 10399 10407 10413 10421 10433 10444 10452 10461 10469 10476 10484 10492 10500 10508 10516 10525 10535 10542 10549 10555 10562 10568 10575 10581 10587 10594 10602 10608 10615 10621 10626 10632 10639 10644 10648 10655 10663 10667 10669 10674 10681 10685 10687 10691 10698 10703 10706 10710 10716 10721 10724 10726 10727 10726 10723 10722 10724 10726 10727 10727 10728 10729 10731 10735 10739 10740
10305 10307 10309 10311 10313 10316 10320 10324 10327 10331 10335 10339 10344 10348 10352 10357 10364 10370 10376 10380 10386 10394 10402 10409 10418 10427 10435 10442 10449 10456 10465 10474 10483 10492 10500 10509 10519 10528 10536 10544 10552 10557 10564 10570 10575 10581 10589 10596 10602 10609 10616 10620 10625 10631 10635 10640 10648 10655 10659 10663 10670 10674 10677 10679 10684 10690 10695 10699 10704 10708 10711 10714 10716 10718 10718 10716 10715 10714 10716 10718 10719 10720 10722 10723 10726 10729 10731
10299 10301 10303 10305 10308 10311 10315 10318 10322 10326 10329 10334 10338 10343 10347 10353 10360 10366 10370 10375 10382 10390 10397 10403 10410 10418 10426 10433 10441 10450 10459 10467 10476 10485 10493 10502 10512 10521 10529 10538 10546 10552 10558 10564 10568 10575 10583 10589 10595 10603 10609 10612 10617 10623 10627 10632 10640 10647 10652 10660 10667 10669 10670 10674 10680 10685 10689 10692 10695 10698 10699 10701 10703 10706 10707 10708 10706 10706 10708 10709 10710 10712 10714 10716 10717 10719 10722
10294 10296 10298 10300 10303 10307 10310 10313 10317 10321 10325 10329 10334 10338 10343 10350 10356 10360 10364 10370 10377 10384 10390 10396 10403 10412 10420 10427 10436 10445 10453 10461 10470 10479 10487 10496 10506 10516 10524 10532 10539 10546 10552 10556 10562 10570 10578 10583 10590 10598 10603 10606 10611 10617 10620 10626 10634 10640 10647 10656 10661 10661 10664 10671 10677 10681 10683 10684 10685 10687 10688 10689 10692 10696 10698 10699 10699 10699 10700 10701 10702 10704 10707 10709 10710 10711 10713
10289 10291 10294 10296 10299 10302 10305 10309 10313 10317 10320 10325 10329 10334 10340 10346 10350 10354 10359 10365 10372 10379 10385 10391 10399 10407 10414 10423 10432 10440 10448 10456 10466 10474 10482 10491 10501 10511 10519 10526 10533 10540 10546 10551 10558 10566 10571 10578 10587 10594 10597 10601 10606 10610 10615 10622 10628 10634 10640 10647 10650 10653 10659 10665 10669 10672 10676 10676 10676 10678 10680 10683 10686 10688 10689 10689 10690 10691 10692 10693 10695 10698 10700 10700 10700 10701 10704
10285 10287 10289 10292 10295 10298 10301 10305 10309 10312 10316 10321 10325 10330 10336 10341 10345 10350 10355 10361 10369 10376 10382 10388 10395 10402 10410 10419 10428 10436 10444 10453 10462 10470 10478 10487 10497 10506 10514 10521 10527 10534 10540 10547 10554 10560 10566 10576 10585 10588 10589 10593 10597 10602 10608 10614 10619 10625 10631 10636 10640 10645 10651 10654 10658 10664 10668 10666 10665 10669 10674 10675 10677 10678 10678 10679 10681 10684 10685 10687 10689 10690 10690 10689 10689 10692 10695
10281 10283 10285 10288 10291 10294 10298 10301 10305 10308 10312 10317 10322 10327 10332 10336 10341 10346 10352 10359 10366 10372 10378 10384 10391 10398 10407 10416 10424 10432 10440 10449 10458 10466 10475 10483 10492 10501 10510 10517 10522 10529 10536 10544 10550 10556 10562 10572 10579 10580 10580 10584 10589 10594 10600 10606 10611 10617 10622 10627 10633 10639 10644 10647 10650 10655 10657 10655 10655 10660 10664 10665 10665 10667 10668 10670 10674 10677 10679 10681 10682 10682 10682 10681 10681 10684 10687
10278 10279 10282 10284 10287 10291 10294 10298 10301 10305 10309 10314 10319 10324 10329 10334 10338 10344 10350 10356 10363 10368 10374 10380 10387 10396 10405 10414 10421 10429 10437 10446 10454 10463 10472 10480 10488 10497 10507 10514 10519 10525 10532 10539 10545 10551 10559 10568 10573 10572 10573 10578 10583 10589 10595 10601 10606 10611 10616 10622 10628 10634 10638 10641 10643 10646 10648 10647 10648 10652 10655 10655 10655 10657 10659 10663 10667 10670 10673 10674 10674 10674 10675 10675 10676 10677 10680
10274 10276 10278 10281 10285 10288 10292 10295 10299 10303 10307 10311 10316 10321 10327 10332 10338 10344 10349 10355 10361 10366 10372 10378 10386 10394 10403 10411 10418 10427 10434 10442 10451 10460 10469 10477 10486 10495 10504 10511 10516 10522 10529 10536 10542 10548 10556 10564 10567 10566 10567 10572 10577 10583 10590 10597 10603 10609 10614 10620 10626 10630 10633 10636 10638 10640 10643 10643 10643 10644 10645 10645 10645 10647 10651 10656 10661 10664 10666 10667 10667 10667 10668 10668 10669 10671 10672
10271 10273 10276 10279 10282 10286 10289 10293 10297 10301 10305 10310 10315 10321 10326 10331 10336 10342 10348 10354 10359 10365 10371 10377 10385 10393 10401 10409 10416 10424 10432 10440 10449 10458 10466 10474 10483 10492 10500 10507 10512 10518 10525 10532 10539 10545 10552 10558 10559 10558 10559 10564 10570 10576 10585 10595 10603 10608 10613 10618 10622 10625 10628 10630 10632 10633 10634 10633 10633 10632 10633 10634 10637 10641 10646 10651 10655 10657 10658 10658 10659 10660 10661 10661 10662 10663 10663
10269 10271 10274 10277 10280 10284 10287 10291 10295 10299 10304 10309 10315 10321 10326 10330 10334 10339 10345 10351 10357 10363 10369 10376 10383 10392 10400 10407 10415 10423 10431 10439 10447 10455 10463 10471 10480 10488 10495 10503 10509 10514 10520 10527 10534 10540 10545 10549 10550 10549 10551 10558 10565 10574 10586 10598 10603 10605 10608 10612 10616 10618 10620 10621 10622 10621 10620 10619 10618 10620 10623 10627 10632 10637 10641 10645 10647 10649 10650 10650 10651 10653 10654 10654 10653 10654 10654
10267 10270 10272 10275 10279 10283 10286 10290 10294 10299 10303 10309 10314 10319 10323 10328 10333 10338 10344 10349 10355 10361 10367 10374 10382 10390 10399 10406 10414 10422 10430 10438 10445 10452 10460 10469 10477 10484 10492 10499 10505 10509 10516 10523 10529 10534 10539 10542 10542 10544 10549 10557 10567 10577 10586 10594 10597 10597 10600 10604 10606 10608 10608 10608 10607 10606 10606 10606 10609 10614 10619 10624 10628 10632 10635 10637 10639 10641 10642 10643 10645 10647 10647 10647 10646 10646 10646
10266 10268 10271 10275 10278 10282 10285 10289 10294 10298 10303 10308 10313 10317 10322 10327 10332 10338 10344 10349 10355 10361 10367 10373 10381 10390 10398 10405 10413 10420 10428 10437 10445 10453 10459 10467 10473 10480 10488 10495 10500 10506 10512 10518 10523 10528 10532 10534 10538 10545 10552 10560 10567 10575 10582 10587 10589 10591 10593 10596 10597 10597 10597 10596 10597 10598 10601 10604 10608 10612 10617 10620 10622 10625 10627 10629 10631 10633 10634 10635 10637 10639 10640 10640 10640 10639 10639
10265 10267 10270 10274 10277 10281 10284 10288 10293 10297 10302 10307 10312 10316 10321 10326 10332 10337 10343 10348 10354 10361 10367 10374 10381 10390 10397 10404 10410 10418 10427 10436 10444 10452 10458 10464 10471 10478 10485 10492 10498 10504 10509 10514 10518 10522 10525 10529 10537 10547 10555 10559 10565 10572 10577 10581 10584 10586 10587 10589 10589 10590 10591 10592 10594 10597 10600 10602 10605 10607 10609 10611 10614 10616 10618 10621 10623 10624 10625 10625 10627 10629 10631 10632 10632 10632 10632
10264 10267 10270 10273 10276 10280 10283 10287 10292 10296 10301 10306 10311 10316 10321 10326 10332 10337 10342 10348 10354 10360 10366 10373 10380 10388 10396 10402 10409 10417 10426 10433 10440 10448 10455 10463 10470 10478 10484 10491 10496 10500 10504 10508 10513 10516 10521 10529 10539 10548 10553 10557 10562 10567 10571 10574 10576 10577 10578 10579 10581 10583 10586 10588 10590 10592 10594 10596 10599 10601 10603 10605 10607 10609 10611 10613 10614 10615 10616 10616 10617 10619 10621 10623 10623 10623 10622
10264 10266 10269 10272 10275 10279 10283 10287 10291 10295 10300 10305 10310 10315 10321 10326 10332 10337 10342 10348 10353 10359 10365 10373 10380 10388 10394 10401 10408 10416 10425 10432 10439 10446 10453 10460 10467 10475 10481 10487 10491 10495 10499 10503 10508 10513 10521 10531 10540 10546 10549 10553 10556 10559 10561 10564 10565 10566 10567 10570 10574 10578 10581 10583 10585 10587 10590 10592 10595 10597 10598 10599 10601 10602 10603 10605 10606 10606 10607 10608 10609 10610 10611 10612 10612 10612 10612
10263 10266 10269 10272 10275 10279 10282 10286 10290 10295 10299 10304 10309 10314 10319 10325 10331 10336 10342 10348 10354 10360 10366 10373 10380 10387 10394 10400 10408 10416 10424 10431 10438 10444 10450 10455 10461 10467 10474 10480 10485 10490 10494 10499 10505 10512 10521 10530 10537 10542 10545 10548 10549 10551 10552 10553 10555 10557 10561 10566 10571 10575 10578 10581 10583 10584 10586 10587 10588 10590 10591 10592 10593 10594 10595 10597 10598 10599 10599 10600 10601 10602 10602 10602 10602 10601 10602
10263 10265 10269 10272 10275 10279 10282 10286 10290 10294 10299 10303 10307 10312 10317 10323 10330 10336 10342 10348 10354 10360 10366 10372 10379 10386 10394 10401 10408 10415 10422 10429 10436 10442 10448 10452 10456 10462 10468 10475 10481 10486 10491 10497 10504 10511 10519 10526 10532 10537 10540 10541 10541 10541 10543 10546 10550 10555 10560 10564 10568 10572 10574 10576 10578 10579 10580 10581 10582 10583 10584 10584 10585 10587 10588 10589 10590 10591 10592 10593 10593 10593 10593 10593 10593 10593 10593
10263 10266 10269 10272 10275 10278 10282 10285 10289 10293 10298 10302 10307 10312 10317 10322 10327 10333 10339 10345 10352 10358 10365 10372 10379 10386 10392 10399 10406 10413 10420 10427 10434 10440 10444 10448 10453 10459 10466 10473 10478 10482 10487 10494 10501 10509 10515 10521 10526 10530 10531 10532 10533 10535 10538 10544 10549 10553 10557 10560 10563 10565 10567 10569 10571 10573 10574 10575 10576 10577 10577 10578 10579 10580 10581 10582 10582 10583 10583 10584 10584 10584 10584 10584 10584 10584 10585
10263 10267 10270 10272 10275 10279 10282 10285 10289 10293 10298 10303 10308 10314 10319 10323 10328 10333 10338 10345 10351 10357 10364 10371 10378 10385 10391 10398 10405 10411 10417 10424 10431 10437 10442 10447 10454 10460 10466 10471 10474 10479 10485 10492 10499 10505 10510 10515 10519 10522 10524 10526 10528 10532 10537 10542 10546 10550 10552 10554 10556 10557 10559 10562 10564 10566 10568 10569 10570 10570 10571 10572 10573 10574 10574 10575 10575 10576 10576 10576 10576 10575 10575 10575 10575 10575 10575
10264 10267 10270 10274 10277 10280 10284 10287 10291 10296 10300 10305 10310 10315 10320 10325 10331 10335 10340 10345 10351 10358 10364 10370 10376 10383 10390 10397 10403 10410 10417 10424 10430 10435 10441 10448 10455 10460 10463 10465 10470 10477 10485 10491 10497 10502 10506 10509 10512 10515 10519 10522 10526 10531 10535 10538 10541 10543 10545 10547 10549 10551 10553 10555 10556 10558 10560 10561 10562 10563 10564 10565 10565 10565 10565 10567 10568 10568 10568 10567 10567 10567 10566 10566 10566 10565 10565
10266 10269 10272 10275 10278 10282 10286 10290 10294 10298 10302 10306 10310 10315 10319 10324 10330 10336 10341 10347 10353 10358 10363 10369 10375 10382 10389 10396 10402 10409 10416 10422 10427 10433 10439 10446 10452 10454 10456 10459 10467 10475 10482 10488 10493 10496 10499 10502 10506 10511 10516 10520 10524 10527 10530 10532 10534 10536 10539 10542 10544 10545 10547 10548 10550 10551 10552 10553 10554 10555 10556 10556 10556 10556 10556 10557 10558 10558 10558 10558 10558 10558 10558 10557 10556 10555 10555
10268 10270 10273 10277 10280 10284 10288 10292 10295 10299 10303 10307 10311 10315 10320 10324 10329 10335 10341 10347 10352 10358 10363 10370 10376 10382 10388 10395 10402 10408 10413 10419 10425 10431 10437 10442 10445 10447 10451 10458 10467 10475 10481 10485 10487 10489 10491 10497 10503 10509 10514 10517 10520 10522 10524 10526 10529 10531 10533 10535 10538 10540 10541 10542 10543 10543 10544 10545 10546 10547 10547 10548 10548 10548 10548 10548 10548 10548 10548 10548 10548 10549 10548 10547 10546 10545 10544
10269 10271 10274 10277 10281 10284 10288 10292 10295 10299 10303 10308 10312 10317 10322 10326 10330 10335 10340 10347 10352 10358 10364 10370 10376 10382 10388 10394 10400 10405 10411 10417 10422 10428 10432 10435 10439 10445 10452 10461 10468 10474 10477 10479 10480 10483 10488 10496 10503 10506 10509 10511 10514 10517 10520 10522 10523 10525 10527 10529 10531 10534 10535 10536 10536 10536 10536 10537 10538 10539 10540 10540 10540 10540 10540 10539 10539 10538 10538 10538 10538 10538 10538 10537 10536 10535 10534
10271 10273 10276 10278 10281 10284 10288 10292 10296 10300 10305 10310 10314 10319 10323 10327 10331 10336 10341 10348 10354 10359 10364 10369 10374 10380 10386 10392 10397 10403 10409 10414 10419 10423 10428 10433 10440 10447 10455 10461 10467 10470 10472 10473 10476 10482 10488 10494 10497 10500 10503 10506 10510 10512 10514 10516 10517 10519 10521 10523 10525 10527 10528 10529 10529 10529 10530 10530 10530 10531 10532 10532 10532 10532 10531 10530 10529 10528 10528 10528 10528 10527 10527 10526 10525 10524 10522
10273 10276 10278 10281 10284 10287 10290 10293 10297 10301 10305 10310 10315 10320 10324 10329 10333 10337 10342 10347 10353 10359 10364 10369 10374 10378 10384 10390 10396 10401 10406 10411 10416 10421 10428 10435 10442 10448 10453 10458 10462 10464 10467 10470 10475 10480 10484 10487 10490 10494 10498 10501 10503 10506 10508 10510 10512 10514 10515 10517 10518 10519 10520 10521 10522 10522 10523 10523 10523 10524 10524 10524 10524 10524 10523 10521 10520 10520 10519 10518 10517 10516 10515 10514 10513 10512 10511
10275 10278 10280 10283 10286 10289 10292 10295 10299 10303 10307 10310 10314 10319 10323 10328 10333 10338 10342 10347 10353 10358 10363 10368 10374 10379 10384 10389 10394 10399 10404 10409 10415 10422 10429 10435 10440 10445 10449 10452 10456 10459 10463 10467 10471 10474 10478 10481 10485 10489 10492 10494 10497 10499 10502 10504 10506 10507 10509 10510 10511 10512 10512 10513 10514 10515 10516 10516 10517 10517 10517 10517 10516 10515 10514 10513 10512 10511 10510 10508 10506 10505 10504 10503 10502 10501 10499
10278 10280 10282 10285 10289 10291 10294 10297 10300 10304 10308 10312 10316 10320 10324 10328 10333 10338 10342 10347 10352 10357 10362 10367 10372 10377 10381 10386 10391 10396 10402 10409 10415 10421 10426 10431 10435 10438 10442 10446 10451 10455 10458 10462 10466 10470 10474 10477 10481 10484 10486 10489 10491 10494 10496 10498 10499 10501 10502 10504 10504 10505 10506 10506 10507 10508 10508 10509 10509 10510 10509 10509 10508 10507 10505 10505 10504 10502 10500 10498 10496 10495 10493 10492 10491 10489 10488